• In Netherlands
  • List of Countries
  • For 7 days
  • Water Temperature
  • Satellite Maps
  • Weather Map
  • Weather Widgets
  • user-avatar
    Login

    Hourly Weather Ropotamo

    Today, 27 May, Saturday

    Time Temperature Precipitation Wind Pressure Humidity
    00:00 +12°C° 0 mm 2 mps 756 mmHg 96%
    01:00 +12°C° 0 mm 2 mps 756 mmHg 96%
    02:00 +11°C° 0 mm 1 mps 756 mmHg 97%
    03:00 +10°C° 0 mm 2 mps 756 mmHg 97%
    04:00 +10°C° 0 mm 2 mps 756 mmHg 97%
    05:00 +10°C° 0 mm 2 mps 756 mmHg 97%
    06:00 +13°C° 0 mm 2 mps 756 mmHg 91%
    07:00 +15°C° 0 mm 2 mps 757 mmHg 86%
    08:00 +17°C° 0 mm 2 mps 757 mmHg 80%
    09:00 +18°C° 0 mm 2 mps 757 mmHg 77%
    10:00 +19°C° 0 mm 3 mps 757 mmHg 73%
    11:00 +20°C° 0 mm 3 mps 757 mmHg 69%
    12:00 +20°C° 0.1 mm 3 mps 757 mmHg 69%
    13:00 +20°C° 0.1 mm 4 mps 757 mmHg 69%
    14:00 +19°C° 0 mm 3 mps 757 mmHg 73%
    15:00 +19°C° 0 mm 3 mps 757 mmHg 75%
    16:00 +18°C° 0 mm 3 mps 757 mmHg 76%
    17:00 +18°C° 0 mm 4 mps 757 mmHg 77%
    18:00 +17°C° 0 mm 3 mps 758 mmHg 82%
    19:00 +16°C° 0 mm 3 mps 758 mmHg 87%
    20:00 +13°C° 0 mm 3 mps 758 mmHg 92%
    21:00 +13°C° 0 mm 3 mps 758 mmHg 92%
    22:00 +13°C° 0 mm 3 mps 759 mmHg 93%
    23:00 +13°C° 0 mm 4 mps 759 mmHg 94%

    Tomorrow, 28 May, Sunday

    Time Temperature Precipitation Wind Pressure Humidity
    00:00 +13°C° 0.1 mm 4 mps 759 mmHg 94%
    01:00 +13°C° 0.1 mm 4 mps 759 mmHg 94%
    02:00 +13°C° 0.1 mm 4 mps 759 mmHg 94%
    03:00 +14°C° 0.1 mm 4 mps 759 mmHg 94%
    04:00 +14°C° 0.1 mm 5 mps 760 mmHg 94%
    05:00 +14°C° 0.1 mm 5 mps 760 mmHg 94%
    06:00 +14°C° 0.1 mm 5 mps 760 mmHg 93%
    07:00 +15°C° 0.1 mm 5 mps 760 mmHg 91%
    08:00 +15°C° 0.1 mm 6 mps 761 mmHg 89%
    09:00 +16°C° 0.1 mm 6 mps 761 mmHg 86%
    10:00 +17°C° 0.1 mm 6 mps 761 mmHg 83%
    11:00 +19°C° 0.1 mm 6 mps 761 mmHg 79%
    12:00 +19°C° 0.1 mm 6 mps 761 mmHg 78%
    13:00 +20°C° 0.1 mm 6 mps 761 mmHg 76%
    14:00 +20°C° 0.1 mm 6 mps 761 mmHg 74%
    15:00 +20°C° 0.1 mm 6 mps 761 mmHg 75%
    16:00 +20°C° 0.1 mm 6 mps 761 mmHg 76%
    17:00 +18°C° 0.1 mm 7 mps 761 mmHg 76%
    18:00 +17°C° 0 mm 6 mps 761 mmHg 82%
    19:00 +16°C° 0 mm 5 mps 762 mmHg 88%
    20:00 +14°C° 0 mm 4 mps 762 mmHg 94%
    21:00 +14°C° 0 mm 4 mps 762 mmHg 93%
    22:00 +13°C° 0 mm 4 mps 762 mmHg 93%
    23:00 +13°C° 0 mm 3 mps 762 mmHg 93%

    Day after tomorrow, 29 May, Monday

    Time Temperature Precipitation Wind Pressure Humidity
    00:00 +13°C° 0 mm 4 mps 762 mmHg 92%
    01:00 +13°C° 0 mm 4 mps 762 mmHg 91%
    02:00 +12°C° 0 mm 4 mps 762 mmHg 90%
    03:00 +12°C° 0 mm 4 mps 762 mmHg 89%
    04:00 +12°C° 0 mm 5 mps 761 mmHg 88%
    05:00 +12°C° 0 mm 5 mps 761 mmHg 86%
    06:00 +14°C° 0 mm 5 mps 761 mmHg 82%
    07:00 +16°C° 0 mm 6 mps 761 mmHg 77%
    08:00 +19°C° 0 mm 6 mps 761 mmHg 72%
    09:00 +20°C° 0 mm 6 mps 761 mmHg 71%
    10:00 +21°C° 0 mm 6 mps 761 mmHg 69%
    11:00 +22°C° 0 mm 6 mps 761 mmHg 68%
    12:00 +22°C° 0 mm 6 mps 761 mmHg 67%
    13:00 +22°C° 0 mm 6 mps 760 mmHg 65%
    14:00 +22°C° 0 mm 6 mps 760 mmHg 64%
    15:00 +22°C° 0 mm 6 mps 760 mmHg 66%
    16:00 +21°C° 0 mm 5 mps 760 mmHg 68%
    17:00 +21°C° 0 mm 5 mps 760 mmHg 70%
    18:00 +19°C° 0 mm 5 mps 760 mmHg 77%
    19:00 +17°C° 0 mm 4 mps 760 mmHg 84%
    20:00 +14°C° 0 mm 3 mps 760 mmHg 91%
    21:00 +13°C° 0 mm 3 mps 760 mmHg 92%
    22:00 +13°C° 0 mm 2 mps 760 mmHg 92%
    23:00 +13°C° 0 mm 2 mps 760 mmHg 93%

    30 May, Tuesday

    Time Temperature Precipitation Wind Pressure Humidity
    00:00 +13°C° 0 mm 2 mps 760 mmHg 92%
    01:00 +13°C° 0 mm 2 mps 760 mmHg 92%
    02:00 +13°C° 0 mm 2 mps 759 mmHg 91%
    03:00 +12°C° 0 mm 2 mps 759 mmHg 91%
    04:00 +12°C° 0 mm 2 mps 759 mmHg 90%
    05:00 +12°C° 0 mm 2 mps 759 mmHg 90%
    06:00 +14°C° 0 mm 2 mps 759 mmHg 82%
    07:00 +17°C° 0 mm 2 mps 760 mmHg 75%
    08:00 +19°C° 0 mm 2 mps 760 mmHg 68%
    09:00 +20°C° 0 mm 2 mps 760 mmHg 63%
    10:00 +23°C° 0 mm 2 mps 760 mmHg 58%
    11:00 +24°C° 0 mm 2 mps 760 mmHg 53%
    12:00 +24°C° 0 mm 2 mps 760 mmHg 52%
    13:00 +24°C° 0 mm 2 mps 759 mmHg 51%
    14:00 +25°C° 0 mm 2 mps 759 mmHg 50%
    15:00 +24°C° 0 mm 2 mps 759 mmHg 53%
    16:00 +24°C° 0 mm 2 mps 759 mmHg 56%
    17:00 +23°C° 0 mm 2 mps 759 mmHg 59%
    18:00 +19°C° 0 mm 2 mps 759 mmHg 68%
    19:00 +17°C° 0 mm 2 mps 759 mmHg 76%
    20:00 +14°C° 0 mm 1 mps 759 mmHg 85%
    21:00 +13°C° 0 mm 1 mps 759 mmHg 85%
    22:00 +12°C° 0 mm 1 mps 759 mmHg 85%
    23:00 +12°C° 0 mm 1 mps 760 mmHg 85%

    31 May, Wednesday

    Time Temperature Precipitation Wind Pressure Humidity
    00:00 +12°C° 0 mm 1 mps 759 mmHg 84%
    01:00 +12°C° 0 mm 1 mps 759 mmHg 83%
    02:00 +12°C° 0 mm 1 mps 759 mmHg 83%
    03:00 +12°C° 0 mm 1 mps 759 mmHg 83%
    04:00 +12°C° 0 mm 1 mps 759 mmHg 83%
    05:00 +12°C° 0 mm 1 mps 759 mmHg 84%
    06:00 +15°C° 0 mm 1 mps 759 mmHg 76%
    07:00 +19°C° 0 mm 1 mps 759 mmHg 69%
    08:00 +22°C° 0 mm 1 mps 759 mmHg 62%
    09:00 +23°C° 0 mm 1 mps 759 mmHg 58%
    10:00 +25°C° 0 mm 1 mps 759 mmHg 55%
    11:00 +26°C° 0 mm 1 mps 759 mmHg 52%
    12:00 +26°C° 0 mm 2 mps 759 mmHg 50%
    13:00 +27°C° 0 mm 2 mps 759 mmHg 48%
    14:00 +27°C° 0 mm 2 mps 758 mmHg 46%
    15:00 +27°C° 0 mm 2 mps 758 mmHg 49%
    16:00 +26°C° 0 mm 3 mps 758 mmHg 52%
    17:00 +26°C° 0 mm 3 mps 758 mmHg 54%
    18:00 +24°C° 0 mm 3 mps 758 mmHg 63%
    19:00 +20°C° 0 mm 3 mps 758 mmHg 71%
    20:00 +18°C° 0 mm 3 mps 758 mmHg 79%
    21:00 +17°C° 0 mm 3 mps 758 mmHg 80%
    22:00 +16°C° 0 mm 3 mps 758 mmHg 80%
    23:00 +16°C° 0 mm 3 mps 758 mmHg 81%

    1 June, Thursday

    Time Temperature Precipitation Wind Pressure Humidity
    00:00 +16°C° 0 mm 3 mps 758 mmHg 79%
    01:00 +16°C° 0 mm 2 mps 757 mmHg 77%
    02:00 +16°C° 0 mm 2 mps 757 mmHg 76%
    03:00 +16°C° 0 mm 2 mps 757 mmHg 77%
    04:00 +15°C° 0 mm 2 mps 757 mmHg 78%
    05:00 +15°C° 0 mm 2 mps 757 mmHg 79%
    06:00 +18°C° 0 mm 2 mps 757 mmHg 73%
    07:00 +21°C° 0 mm 2 mps 757 mmHg 67%
    08:00 +24°C° 0 mm 2 mps 757 mmHg 61%
    09:00 +26°C° 0 mm 2 mps 757 mmHg 57%
    10:00 +27°C° 0 mm 2 mps 757 mmHg 53%
    11:00 +28°C° 0 mm 3 mps 757 mmHg 49%
    12:00 +29°C° 0 mm 3 mps 757 mmHg 47%
    13:00 +29°C° 0 mm 3 mps 756 mmHg 46%
    14:00 +30°C° 0 mm 3 mps 756 mmHg 45%
    15:00 +30°C° 0.1 mm 3 mps 756 mmHg 47%
    16:00 +29°C° 0.1 mm 3 mps 755 mmHg 49%
    17:00 +29°C° 0.1 mm 3 mps 755 mmHg 51%
    18:00 +27°C° 0.3 mm 3 mps 755 mmHg 60%
    19:00 +24°C° 0.3 mm 3 mps 755 mmHg 68%
    20:00 +20°C° 0.3 mm 3 mps 755 mmHg 77%
    21:00 +20°C° 0.4 mm 3 mps 756 mmHg 77%
    22:00 +20°C° 0.4 mm 3 mps 756 mmHg 77%
    23:00 +20°C° 0.4 mm 3 mps 756 mmHg 77%
    Show more